Wind_Speed
17 17 16 16 15 14 14 14 13 12 11 9 8 8 7 6 6 6 7 9 11 13 14 15 15 15 16 16 16 17 16 15 14 13 13 12 11 10 9 9 8 7 6 5 5 5 4 3 3 2 4 6 6 6 5 4 4 4 5 5 5 4 4 4 4 5 5 5 4
17 17 16 14 12 12 12 12 12 11 10 9 8 7 6 6 7 8 9 10 12 14 15 15 15 16 17 17 17 16 16 14 13 12 11 11 10 9 8 6 5 4 3 3 3 3 3 2 2 2 3 4 3 1 1 2 3 3 2 3 3 3 2 2 3 3 3 2 2
16 16 15 13 11 10 11 11 10 9 8 8 8 7 7 7 8 10 11 12 14 15 16 16 16 16 16 17 16 15 14 13 12 11 10 9 8 7 6 5 4 4 4 3 3 3 2 0 1 1 0 1 2 3 4 5 3 3 3 4 4 4 4 4 5 5 4 4 3
13 13 12 12 11 11 11 11 10 9 9 8 8 8 8 8 9 11 13 14 15 16 16 15 15 15 15 15 15 14 13 11 11 10 9 8 7 6 6 6 6 6 5 4 4 3 2 1 2 3 4 5 6 7 7 7 5 4 4 4 4 4 4 5 5 6 6 6 6
10 11 12 13 14 13 13 12 11 10 10 9 10 10 10 10 11 13 15 16 17 16 16 15 15 14 14 14 14 13 12 11 10 10 9 8 8 8 7 7 7 7 6 5 5 4 4 4 5 7 8 8 8 8 8 6 4 4 4 5 6 6 7 7 7 7 7 7 7
11 12 14 16 16 16 15 14 13 12 11 11 12 13 13 14 14 16 17 18 18 18 17 16 15 14 14 13 13 12 12 12 11 11 11 11 10 10 10 9 8 8 7 7 6 6 6 7 8 9 8 7 7 7 6 6 6 7 8 8 8 7 7 7 6 6 5 6 6
15 16 17 18 19 19 18 16 15 14 14 14 15 16 17 17 18 18 19 19 19 19 18 17 16 15 15 14 14 13 13 13 13 13 13 14 13 13 12 11 11 10 10 9 9 9 9 8 9 9 9 8 9 9 8 8 7 8 8 8 7 6 6 6 5 5 5 6 6
19 19 20 20 21 21 20 19 18 17 17 17 18 19 20 20 20 20 20 20 20 19 19 18 17 17 16 16 16 15 15 15 15 16 16 15 15 15 14 14 13 13 13 12 11 10 10 9 10 10 10 10 9 9 7 6 6 6 7 7 7 6 6 6 6 6 6 6 7
21 21 21 22 22 23 22 21 20 20 20 20 20 20 21 21 21 21 21 21 21 20 20 19 19 18 17 17 17 18 17 17 17 17 16 16 16 16 15 15 15 14 13 12 11 10 10 10 10 10 10 9 8 7 6 5 5 6 7 8 8 7 7 6 7 7 7 7 8
23 23 23 23 23 23 23 23 22 22 22 22 22 21 22 22 22 22 22 22 22 22 21 21 20 20 19 19 19 19 19 18 17 16 16 16 15 15 15 14 14 13 12 11 10 10 9 10 10 9 8 7 7 7 6 6 6 7 8 8 7 7 7 7 7 7 8 8 9
24 24 24 24 24 24 24 24 23 23 23 23 23 22 22 22 22 22 23 23 23 23 23 22 21 21 21 20 20 20 19 17 16 15 15 15 14 14 13 13 12 12 12 11 10 10 9 10 10 9 9 8 8 8 7 7 7 8 8 7 7 7 7 7 7 7 8 8 9
25 24 24 24 25 24 24 25 25 24 24 24 23 23 23 23 23 23 23 24 24 24 23 22 21 21 21 20 19 18 17 16 15 14 14 14 14 13 13 13 13 13 12 12 11 11 11 10 10 10 10 9 8 8 8 7 7 7 7 7 6 6 7 7 7 7 7 7 8
25 24 24 24 24 25 25 26 26 25 25 24 24 23 23 23 23 23 24 24 24 24 23 21 20 20 19 18 18 17 16 15 14 14 14 14 14 14 14 14 14 14 14 13 12 12 11 11 10 10 10 10 9 9 8 7 7 7 7 7 7 7 8 8 7 7 7 6 6
25 24 24 24 24 25 25 26 26 26 25 24 24 23 23 23 23 23 24 24 24 23 22 21 20 19 18 18 17 16 16 15 15 15 15 15 15 15 15 15 14 14 14 13 12 12 11 10 10 10 10 10 10 9 8 8 8 8 8 8 8 8 8 8 7 7 7 6 6
25 24 24 24 24 25 26 27 27 26 26 25 24 24 24 24 23 23 24 24 23 22 22 21 21 20 19 18 18 17 17 16 16 16 16 15 15 15 15 15 14 14 13 13 12 11 10 10 10 10 10 10 10 9 8 8 8 8 8 8 8 8 8 7 7 7 7 7 7
26 25 24 24 25 26 27 28 28 27 27 26 25 25 25 24 24 24 24 24 23 23 22 22 21 21 20 19 18 18 17 17 16 16 16 15 15 15 15 14 14 13 12 11 10 10 10 10 10 10 10 10 10 9 9 8 8 8 8 8 8 8 8 7 7 7 7 7 7
26 25 25 26 27 28 28 28 28 27 27 26 25 25 25 25 24 24 24 23 23 22 22 21 20 20 19 19 18 17 17 16 16 15 15 15 15 14 14 14 13 12 11 10 10 10 10 10 10 10 10 10 10 9 9 9 9 9 9 9 9 9 9 8 8 8 8 8 8
26 26 27 27 28 29 28 28 27 26 26 25 25 24 24 24 24 24 24 23 22 22 21 20 19 19 18 18 17 16 16 15 15 14 14 14 14 14 14 13 12 11 10 10 10 10 11 11 10 10 10 10 10 10 9 9 10 10 10 10 10 10 10 10 10 10 10 10 10
27 27 27 28 28 28 27 26 26 25 25 25 25 25 25 25 25 25 24 23 22 21 20 19 19 18 18 17 17 16 15 14 13 13 12 12 12 12 12 12 11 11 10 10 10 11 11 11 11 10 10 10 10 10 10 10 10 10 11 11 12 12 12 12 12 12 12 12 11
27 27 27 27 26 25 25 24 25 25 25 26 26 26 26 26 25 25 24 23 22 20 19 19 18 18 17 16 16 15 14 12 12 11 11 11 11 11 11 10 10 10 10 11 12 12 12 12 12 11 11 10 10 10 11 11 11 12 12 13 13 14 14 13 13 13 13 13 12
26 26 25 25 24 24 23 23 24 25 25 26 26 26 26 25 25 24 24 22 21 19 18 18 17 17 16 15 14 13 12 11 10 9 9 9 10 10 10 9 9 10 11 13 14 14 14 13 12 12 11 11 11 11 12 12 12 13 14 14 15 15 15 15 15 14 14 13 13
25 24 24 23 23 22 22 23 24 24 25 25 25 25 25 24 24 23 22 20 19 18 17 17 16 15 15 14 13 12 11 9 9 8 8 8 8 8 8 8 9 11 13 15 15 15 13 12 11 11 11 11 12 12 12 13 14 14 15 16 16 16 16 16 15 15 14 13 13
24 24 23 23 22 22 22 23 23 24 24 25 24 24 24 23 22 21 19 18 17 17 16 16 15 14 14 13 12 11 10 9 8 8 7 7 7 7 7 8 9 12 14 16 15 14 12 10 10 10 10 11 11 12 13 14 15 16 17 17 17 17 17 16 15 14 13 13 12
24 24 23 23 23 23 23 23 23 24 24 24 23 22 22 21 20 19 18 18 17 16 16 15 15 14 13 12 11 10 9 9 9 8 8 7 7 7 7 8 10 12 15 16 14 13 11 9 9 10 10 11 11 12 13 14 15 17 18 18 18 17 17 16 15 14 13 12 12
25 25 24 24 24 24 24 24 24 24 24 23 22 21 21 20 19 18 17 17 16 16 16 15 14 13 12 11 10 10 9 9 9 9 9 8 8 8 8 9 11 13 15 14 13 12 11 10 9 10 10 11 11 12 13 15 16 18 18 18 18 17 16 15 14 13 13 12 12
26 26 25 25 25 25 25 25 25 24 24 23 22 21 20 19 18 17 16 16 16 15 15 14 14 13 12 12 11 11 11 11 10 10 10 10 10 10 10 11 12 14 14 13 12 11 11 10 9 10 10 11 12 13 14 16 17 18 18 18 16 16 15 15 14 14 13 12 12
26 26 25 25 25 25 25 24 23 23 23 22 21 20 19 18 17 16 16 16 16 15 14 14 14 14 13 13 13 13 13 13 12 12 12 12 11 11 11 11 13 14 14 12 11 11 11 10 9 10 10 11 12 14 15 17 18 18 18 16 15 14 14 14 15 15 14 13 12
25 25 25 25 25 24 23 23 22 22 22 21 20 19 18 18 17 17 17 17 16 15 15 16 15 14 14 14 14 14 14 14 14 13 13 12 12 11 11 12 13 13 13 12 12 11 11 10 9 10 11 12 13 14 16 17 18 18 17 15 14 14 14 15 15 15 15 15 14
24 24 24 24 24 23 22 22 22 21 21 20 19 19 18 18 18 18 17 17 16 16 16 16 15 14 15 15 15 14 14 14 14 13 13 12 12 12 12 13 14 14 13 12 12 12 11 10 9 9 10 12 13 14 15 16 17 17 16 15 14 14 15 15 16 16 16 16 15
24 24 24 24 23 22 22 21 20 20 19 19 18 18 18 18 18 18 17 17 17 17 16 14 14 15 16 15 15 14 14 14 14 13 13 12 12 12 13 14 15 15 14 13 12 11 10 9 9 9 10 11 12 13 15 16 16 16 15 15 14 15 15 16 16 17 17 17 16
23 23 23 23 23 22 21 20 20 19 18 18 18 18 18 19 19 19 18 18 17 16 15 14 15 16 16 15 15 15 15 14 14 13 13 13 13 13 14 15 16 16 15 13 12 11 10 9 9 9 9 9 11 13 14 15 16 15 15 15 15 15 16 16 16 17 17 17 17
22 22 22 23 22 22 21 20 19 19 19 19 19 19 20 20 19 19 18 17 16 15 15 15 16 16 16 15 15 15 14 14 14 14 13 13 12 13 14 15 17 17 16 14 13 12 10 9 8 8 8 9 11 13 14 14 15 14 14 14 14 15 15 16 16 16 16 16 16
22 22 22 22 22 21 21 20 20 20 20 20 20 21 21 20 19 19 18 17 16 16 16 17 17 17 17 16 16 15 15 15 14 14 13 12 12 12 14 15 17 17 16 14 14 13 11 9 8 8 9 10 12 13 13 14 14 13 13 13 14 14 14 15 15 15 15 15 15
21 21 22 22 22 21 21 20 20 20 20 21 21 21 21 20 20 19 18 18 17 17 17 17 17 17 17 16 16 16 15 15 14 13 13 12 11 12 13 15 16 16 15 14 14 14 13 11 10 10 11 13 14 14 14 13 13 13 13 13 13 13 13 14 14 14 14 15 16
21 21 22 22 21 21 21 20 20 21 21 22 21 21 20 20 20 19 18 17 16 17 17 17 17 16 16 16 16 16 16 15 14 14 13 12 11 11 12 14 15 15 15 14 14 13 13 12 11 12 14 15 16 15 14 13 13 14 14 14 13 13 13 13 13 14 15 16 17
20 21 21 21 21 21 20 20 20 21 22 22 21 20 20 19 19 18 17 15 15 16 17 17 17 17 17 18 17 17 17 16 15 15 13 12 12 11 11 12 13 14 15 15 14 13 12 11 11 12 14 17 17 16 14 14 15 15 15 14 14 13 13 13 14 15 16 17 18
19 20 20 21 21 21 20 20 21 22 22 21 21 20 19 18 18 17 16 15 15 16 17 17 18 18 19 19 19 18 17 17 16 16 15 14 13 12 11 10 11 13 14 15 14 13 12 11 10 11 14 17 17 16 15 16 16 16 15 14 14 13 13 15 16 17 17 18 18
19 20 20 21 21 21 21 21 22 22 22 21 20 19 19 18 18 17 16 16 16 17 17 17 18 18 18 18 17 17 17 17 17 17 17 16 15 14 12 11 11 11 13 14 14 13 12 11 10 11 13 16 15 15 16 16 16 15 15 15 15 15 15 17 18 19 19 19 19
20 20 20 21 21 21 21 22 22 22 21 21 20 20 19 19 19 18 17 17 17 17 17 17 17 17 16 16 16 16 16 17 17 18 18 18 17 15 14 13 12 11 12 13 13 13 12 11 11 11 12 13 13 14 15 16 15 14 14 15 15 16 17 19 20 20 20 19 19
20 20 21 21 21 21 22 22 22 21 20 20 20 20 20 20 19 18 18 17 17 16 16 16 16 15 15 14 15 16 16 17 17 18 18 18 18 17 15 15 14 13 12 13 13 12 11 11 11 12 12 12 12 14 16 17 15 14 14 15 16 17 18 20 21 21 20 20 19
20 20 20 21 21 21 21 21 21 20 20 20 20 20 19 19 18 18 17 17 17 16 16 16 16 15 15 15 15 16 17 18 18 18 18 18 18 17 17 16 15 14 13 12 12 12 11 12 12 13 14 14 14 16 18 18 16 14 14 15 16 18 19 20 21 20 20 20 19
Wind_Direction
219 221 223 225 228 229 229 227 228 230 234 239 242 243 240 231 215 201 189 180 176 176 176 173 165 158 157 162 166 169 172 176 175 172 168 165 169 176 184 190 196 198 198 195 194 191 186 183 194 239 266 270 269 269 275 289 309 317 317 317 319 319 318 320 314 313 313 311 306
219 221 223 225 224 219 214 212 213 216 221 228 231 230 223 210 193 180 173 169 168 166 162 155 147 144 144 148 151 156 160 164 164 162 161 160 164 170 175 178 179 176 165 156 155 153 152 163 226 259 266 267 266 272 8 20 12 2 358 7 10 7 4 14 12 4 357 352 344
221 221 222 223 218 205 194 189 192 198 205 209 210 207 200 188 175 165 160 160 163 161 155 145 139 138 140 143 146 150 152 155 158 159 160 159 158 156 154 148 142 134 129 127 128 129 127 168 272 256 175 108 97 94 92 86 74 66 66 67 64 63 65 66 62 58 55 55 52
219 215 212 209 199 187 177 174 175 180 185 183 180 178 175 170 162 155 153 154 154 153 150 146 141 136 136 139 143 147 149 151 156 159 160 156 146 136 128 122 117 113 110 109 105 95 77 57 72 93 99 100 99 98 97 96 91 82 77 79 81 83 84 82 77 73 72 71 68
202 197 188 182 175 169 166 164 164 165 166 164 159 155 154 155 151 148 145 144 141 141 143 144 139 133 130 133 136 138 139 139 142 145 145 141 131 124 119 113 106 102 98 97 92 84 80 84 92 96 99 100 98 97 97 99 104 108 109 109 106 101 97 92 86 80 75 70 66
158 159 159 159 157 156 154 152 152 153 154 152 146 142 140 141 141 139 136 132 131 132 134 134 131 128 126 125 125 125 124 123 124 127 128 127 121 117 114 110 105 102 99 97 96 96 97 100 101 102 104 106 106 109 114 121 122 119 113 106 99 94 88 81 74 66 58 53 49
135 137 139 141 143 144 144 142 142 143 143 142 137 133 132 134 135 133 131 129 129 129 128 128 126 125 123 121 118 116 115 114 116 118 120 120 119 117 114 111 109 107 106 106 107 108 107 107 107 109 114 120 120 121 121 120 117 112 105 95 88 81 73 65 57 48 41 37 34
128 129 129 130 134 136 137 136 137 137 136 133 131 129 128 130 130 130 130 128 126 125 126 126 125 123 122 119 116 113 113 113 113 114 116 117 117 116 114 113 113 113 114 115 114 113 113 114 114 116 119 121 119 115 113 111 108 103 94 84 77 68 60 53 45 38 34 31 30
120 121 123 125 128 130 132 134 135 133 130 128 127 127 128 129 129 128 126 123 123 124 125 123 123 122 120 117 115 114 113 113 113 114 116 117 116 116 116 117 119 120 120 120 119 119 121 123 122 121 119 116 111 106 103 99 96 90 83 76 68 61 54 48 40 34 30 28 27
111 113 115 117 120 124 128 131 131 129 126 124 126 127 129 128 127 125 123 122 124 124 122 121 122 121 119 116 115 114 114 114 115 116 118 118 117 118 119 122 123 122 121 122 124 127 129 127 122 117 113 110 105 101 98 93 88 83 78 71 65 58 51 45 38 32 28 26 24
107 108 110 112 115 120 124 125 124 123 121 120 122 124 125 124 123 121 122 123 123 121 119 120 121 120 118 116 115 114 114 115 116 117 116 116 116 118 119 120 120 118 117 118 121 123 122 118 114 111 109 107 103 98 92 88 83 78 74 68 60 52 45 39 32 27 24 21 18
105 105 106 109 113 117 120 119 118 117 116 116 116 118 118 117 117 118 121 122 120 118 118 119 119 118 116 114 113 112 112 112 112 112 111 111 111 112 112 111 111 111 110 110 111 111 109 108 109 110 109 104 98 91 85 79 76 73 69 64 56 48 41 34 28 23 20 16 14
104 104 104 107 111 114 114 114 113 113 112 111 111 112 112 113 114 116 117 117 116 114 114 114 113 111 109 107 107 106 106 107 107 107 106 106 106 106 106 105 105 105 104 103 102 102 103 105 107 107 104 97 90 82 75 71 68 65 62 57 51 44 38 31 25 19 15 13 12
104 103 103 105 108 110 109 108 108 108 108 107 107 107 108 109 110 111 112 111 109 108 107 105 103 100 99 99 101 102 103 104 104 103 103 102 102 102 102 101 101 100 98 97 97 98 100 101 101 99 95 89 83 76 70 64 61 58 54 50 45 40 34 27 20 13 9 9 8
101 101 102 104 105 105 104 102 102 103 103 102 102 103 103 103 103 104 104 103 102 100 99 97 96 96 96 98 100 103 104 104 102 101 99 99 98 98 98 96 95 94 93 94 95 95 94 92 90 87 85 81 78 72 66 60 56 52 48 44 39 34 28 21 12 6 3 1 359
96 97 98 99 100 99 99 97 97 97 97 97 98 98 98 97 97 97 97 96 96 96 96 97 98 100 101 102 103 104 104 102 100 97 95 94 93 93 92 91 89 88 89 91 92 90 87 83 79 76 73 72 69 65 59 54 50 46 42 38 34 28 21 13 6 0 356 352 351
92 92 93 93 93 93 93 92 93 93 93 93 94 94 93 93 93 93 94 94 96 96 98 100 103 105 105 105 105 104 103 100 97 93 91 89 88 88 87 86 85 85 86 87 85 81 77 74 70 66 64 62 58 55 50 46 42 38 34 30 25 20 14 7 1 355 351 347 345
89 88 88 88 88 88 88 89 90 91 92 92 92 92 93 94 94 95 96 97 99 100 101 103 106 108 107 106 105 103 101 98 95 92 89 87 86 85 85 84 85 84 83 80 75 70 66 63 60 57 55 52 49 46 42 38 35 31 27 22 18 13 8 3 357 352 348 345 342
86 86 85 84 85 86 87 88 89 91 93 94 95 95 96 97 98 99 99 100 102 103 104 105 105 106 106 104 103 101 99 96 94 92 90 88 86 85 85 85 85 84 79 72 66 60 56 52 49 47 44 42 40 37 33 30 27 24 20 16 13 9 5 1 357 352 348 344 341
84 83 83 84 85 86 87 89 91 93 95 97 98 98 98 99 100 100 100 100 102 105 105 104 103 102 101 101 101 99 97 96 95 93 91 89 86 84 84 84 84 81 75 66 58 52 46 42 38 35 32 31 30 28 25 22 20 17 14 11 9 6 3 360 357 353 349 345 342
83 83 84 85 86 88 90 92 94 96 97 98 98 98 99 99 99 98 98 100 102 104 103 101 99 97 97 97 96 95 95 96 94 91 88 86 83 82 82 84 84 79 72 63 55 48 42 36 32 28 25 24 23 22 20 17 15 12 9 7 6 4 2 360 357 355 352 350 347
84 85 86 88 89 91 92 94 95 96 97 97 97 98 98 97 96 96 97 99 101 100 98 95 93 92 91 90 89 90 91 90 87 83 80 78 79 81 84 87 86 79 69 59 52 46 40 35 31 26 24 23 22 21 19 17 14 11 8 5 3 2 1 360 358 358 357 355 354
86 87 88 90 92 93 93 95 95 95 95 95 95 95 95 94 94 94 94 94 94 93 91 89 87 86 85 84 84 84 83 81 79 75 72 72 75 81 88 91 85 74 63 55 48 42 37 34 32 30 27 25 25 24 21 18 14 10 7 3 1 0 360 359 359 359 359 360 360
88 89 90 91 92 92 93 93 94 94 94 94 95 94 94 93 93 92 90 88 86 84 83 82 80 79 79 79 78 77 76 74 73 72 72 73 76 83 88 87 78 69 60 53 46 40 35 32 35 36 34 31 29 27 23 18 13 9 6 3 1 359 359 359 359 360 2 2 4
90 91 91 91 91 92 92 92 92 92 93 95 96 95 94 92 91 89 87 83 80 77 76 75 74 73 72 73 73 74 74 73 72 73 74 76 77 79 79 76 70 65 58 50 45 44 42 37 37 40 40 37 33 28 23 18 13 9 6 3 2 1 1 1 2 4 5 6 6
91 91 91 92 92 92 91 90 91 91 92 93 94 92 91 89 88 87 84 80 76 73 72 72 72 72 73 74 76 77 76 74 72 69 68 67 67 67 68 67 65 60 53 44 42 46 50 50 43 42 43 39 32 26 21 16 12 9 7 6 6 6 7 8 9 9 9 9 8
90 90 91 93 93 91 90 91 91 91 90 90 89 88 87 87 87 85 83 80 78 76 75 75 76 78 79 79 78 75 72 68 63 59 55 54 56 59 62 64 63 56 48 41 40 44 50 56 50 44 40 36 27 20 16 12 10 9 8 9 12 14 16 16 15 14 12 11 10
89 90 92 92 92 90 90 90 89 88 88 88 88 88 88 88 87 85 84 83 82 80 79 78 79 79 78 74 69 64 60 56 52 49 48 49 53 59 65 66 63 54 44 37 39 43 49 56 55 45 35 29 21 15 12 10 10 10 11 15 18 21 22 22 19 17 14 12 10
89 90 90 90 89 88 88 87 86 86 87 88 89 90 89 87 84 83 81 80 78 76 75 74 73 70 65 61 57 54 52 50 48 47 48 52 58 64 68 68 63 54 44 37 39 43 49 57 59 46 30 21 16 12 11 11 11 12 15 19 22 24 24 23 21 19 16 13 11
87 88 88 87 87 86 85 85 86 87 89 89 89 88 85 81 78 75 73 71 70 69 68 66 64 61 58 55 53 52 51 50 49 50 52 56 63 68 70 68 62 53 43 37 39 43 48 56 55 42 27 17 14 13 12 12 13 15 18 22 25 26 25 24 21 19 16 14 12
87 87 87 87 86 85 86 87 88 88 88 87 85 82 78 75 73 71 70 70 71 70 67 64 63 61 59 56 55 54 54 54 53 54 56 60 65 70 71 68 61 52 43 38 39 42 47 52 49 38 25 17 17 16 15 15 16 18 21 25 27 27 25 22 19 17 15 13 12
86 87 87 86 86 86 87 87 87 86 85 82 80 78 76 76 75 75 74 74 73 72 68 65 63 62 61 59 58 58 58 58 58 58 59 62 67 71 72 68 61 51 42 39 39 41 43 47 45 39 31 26 23 21 19 18 19 21 23 26 27 25 21 17 15 14 13 13 12
85 86 86 86 85 85 85 85 84 83 82 80 79 78 79 79 78 77 76 74 72 69 66 64 63 62 62 61 62 63 62 62 62 62 62 65 69 72 72 67 60 50 41 39 39 39 40 46 52 50 43 37 30 25 23 22 22 23 24 24 22 18 14 12 12 13 14 14 12
83 83 84 84 83 83 83 83 82 81 80 79 79 79 79 80 79 77 75 73 70 68 67 65 65 65 65 64 65 65 66 65 64 64 64 66 70 72 71 67 61 52 42 39 40 39 40 46 55 56 49 42 35 30 27 24 22 21 19 16 13 11 10 10 12 14 14 12 10
80 81 82 82 82 82 81 81 80 79 79 79 79 79 79 79 78 77 76 74 72 72 71 70 69 69 69 68 68 67 66 65 65 65 65 66 69 71 70 67 63 55 46 39 38 38 39 42 50 52 48 42 37 32 26 21 16 13 10 9 8 9 10 11 12 12 11 8 5
78 80 81 82 81 81 81 80 79 79 79 79 79 79 79 79 79 78 77 76 76 77 76 76 74 73 72 70 69 66 64 63 62 62 62 63 63 65 65 64 62 55 46 37 35 35 35 37 42 45 43 38 33 26 19 13 8 6 7 10 13 14 12 10 8 6 4 1 359
79 80 82 83 83 82 81 81 80 80 80 80 80 80 80 80 81 80 79 78 79 80 80 78 75 72 70 68 66 64 61 59 58 57 57 56 55 55 56 56 56 51 43 34 31 31 31 30 32 36 36 33 27 19 10 6 4 7 13 19 22 19 12 6 2 360 358 356 355
83 84 84 85 85 84 83 82 82 82 82 82 82 82 82 82 81 80 79 78 79 80 79 77 73 70 68 67 65 63 59 56 54 52 51 51 49 48 48 49 50 48 41 32 29 28 27 25 22 25 28 27 21 13 6 3 7 15 23 25 21 14 6 1 358 356 354 354 353
87 87 87 87 87 86 85 84 83 82 83 83 83 83 83 81 80 79 78 78 77 77 75 72 69 67 65 64 63 60 57 54 51 50 49 49 48 47 47 48 49 49 45 36 29 25 24 23 19 18 20 23 19 12 7 8 16 27 30 22 13 5 359 356 354 353 353 353 353
88 88 89 88 87 86 85 83 82 82 83 83 82 81 81 80 79 79 78 76 75 73 71 68 66 64 62 60 58 56 54 52 50 49 49 49 49 49 49 50 50 50 48 41 30 24 23 22 17 13 15 22 22 17 14 17 25 31 28 16 6 358 354 352 351 351 351 351 352
88 88 88 88 87 86 84 83 82 82 82 82 81 80 81 81 80 79 76 74 71 68 66 64 62 60 58 56 54 52 50 49 49 49 50 51 50 50 49 48 47 46 45 41 31 24 21 20 15 13 16 22 23 20 18 19 22 22 16 7 359 354 350 349 349 349 349 350 351
Height
742 743 744 745 745 745 746 746 747 748 748 749 749 749 750 750 751 751 752 752 753 754 755 756 756 757 757 756 756 756 757 758 759 759 759 759 761 762 764 765 765 766 767 767 767 768 768 768 768 768 768 769 770 770 771 771 772 772 772 772 773 773 773 773 773 773 773 773 774
741 743 744 744 744 744 745 746 746 747 748 748 749 749 750 750 751 751 752 752 753 754 755 756 756 757 756 756 755 756 757 757 758 758 759 759 761 762 763 764 765 766 766 767 767 767 768 768 768 768 768 769 769 770 771 771 771 771 772 772 772 772 773 773 773 773 773 773 773
741 742 743 743 743 744 744 745 746 746 747 748 749 749 750 750 751 751 752 752 753 754 755 756 757 757 756 755 755 756 757 757 758 758 759 760 761 762 763 764 765 766 766 766 767 767 767 767 767 767 768 769 769 770 770 771 771 771 771 771 772 772 772 772 773 773 773 773 773
740 740 741 742 743 743 744 744 745 746 747 748 749 749 749 750 751 752 752 753 753 754 755 756 757 758 757 756 755 756 757 757 758 759 759 760 761 762 763 764 764 765 765 766 767 767 767 767 767 767 768 769 769 770 770 771 771 771 771 771 771 772 772 773 773 773 773 773 774
739 740 741 741 742 743 744 744 745 746 747 748 749 749 749 750 751 752 753 753 754 754 755 756 758 758 758 757 756 756 757 758 758 759 759 760 761 762 763 763 764 764 765 766 767 767 767 767 767 768 768 769 769 770 770 771 771 771 771 771 772 772 772 773 773 773 774 774 774
739 740 741 741 741 742 743 744 745 746 747 748 749 749 750 751 752 753 753 754 754 755 756 757 757 758 758 758 757 757 758 758 759 759 760 760 761 762 763 763 764 764 765 766 767 767 767 767 767 768 768 769 769 770 771 771 771 771 771 771 772 772 772 773 773 774 774 774 774
740 741 741 741 741 742 743 744 745 746 748 748 749 749 750 751 752 753 754 754 754 755 756 756 757 758 758 758 758 758 758 759 760 760 761 761 761 762 763 763 764 765 766 766 767 767 767 767 767 768 769 770 770 771 771 771 771 771 771 771 771 772 772 773 774 774 774 774 773
740 741 742 741 741 741 742 743 745 746 748 748 749 750 750 751 752 753 754 754 754 755 756 757 757 758 758 758 758 758 759 760 761 762 762 762 762 762 763 763 764 765 766 767 767 767 767 767 768 769 770 771 771 771 771 771 771 771 771 771 772 772 773 773 774 774 774 773 773
741 742 742 742 742 741 742 743 745 747 748 749 749 750 751 752 753 754 754 754 755 755 756 757 758 758 758 758 759 759 760 761 763 764 764 763 763 763 763 764 765 766 766 767 767 767 767 768 769 770 770 771 771 772 772 772 771 771 771 771 772 773 773 773 774 773 773 773 772
743 743 743 743 742 742 742 744 746 747 748 749 750 751 752 753 753 754 754 754 755 756 757 757 758 759 759 759 759 760 761 763 765 765 765 764 764 764 764 765 766 766 766 766 767 767 768 768 769 769 770 771 772 772 772 772 771 771 771 772 772 773 773 773 773 773 773 772 772
744 744 744 744 744 743 744 745 746 747 749 750 751 752 753 754 754 754 755 755 756 756 757 758 759 759 759 760 760 761 763 765 766 766 766 765 765 765 765 766 766 766 766 767 767 768 768 768 769 770 771 772 772 772 772 771 771 771 771 772 772 773 773 773 773 772 772 771 771
745 745 745 745 745 745 745 746 747 748 749 751 752 753 754 754 755 755 756 756 756 757 758 759 759 760 760 761 761 763 764 766 767 767 767 766 766 766 766 766 766 767 767 768 768 768 768 768 769 771 772 772 772 771 771 771 771 771 771 772 772 772 772 772 772 772 771 771 771
746 746 746 746 746 746 747 748 748 749 751 752 753 754 755 755 756 756 756 756 756 757 758 759 760 761 761 762 763 764 766 767 768 768 768 768 767 767 767 767 767 768 768 768 768 768 769 770 771 771 771 771 771 771 771 771 771 771 771 771 771 772 772 772 771 771 771 771 772
746 747 747 747 748 749 749 749 749 750 752 753 754 755 756 756 757 757 757 757 757 758 759 760 761 762 763 763 764 766 767 769 769 769 769 769 769 768 768 768 768 768 768 768 769 770 771 772 772 771 771 770 770 770 770 771 771 771 771 771 771 771 771 771 771 772 772 772 772
747 748 749 750 751 751 750 750 751 752 753 755 756 756 757 758 758 758 758 758 759 760 761 761 762 763 764 765 766 767 769 770 770 770 770 770 770 769 769 769 769 768 769 769 770 771 772 772 771 771 770 769 769 769 770 770 771 771 771 771 771 771 771 771 772 772 772 772 772
749 751 752 753 753 752 751 751 752 754 755 756 758 758 758 759 759 759 759 760 761 761 762 763 764 765 766 767 768 769 769 770 771 771 771 771 771 770 770 769 769 769 770 771 772 773 772 772 771 770 769 769 769 769 770 770 771 771 771 771 771 771 772 772 772 772 772 772 771
752 754 755 754 753 752 753 753 755 756 757 759 759 760 760 760 761 761 761 762 762 763 764 765 766 767 768 768 769 769 770 770 771 771 772 772 771 771 770 770 770 771 772 773 773 773 772 771 770 769 769 769 769 770 770 771 771 771 771 772 772 772 772 772 772 772 772 771 771
755 755 755 754 754 754 755 756 757 758 759 760 761 761 762 762 762 763 763 764 764 765 766 767 768 768 769 769 769 769 770 770 771 772 772 772 771 771 771 771 772 773 774 774 774 773 772 771 770 769 769 769 770 770 771 771 771 772 772 772 772 772 772 772 772 771 771 771 771
756 756 756 755 756 757 758 759 760 761 761 762 763 763 764 764 764 764 764 765 766 767 768 769 769 769 769 769 769 769 770 771 772 772 773 772 772 772 772 773 774 774 774 774 773 772 771 770 770 770 770 770 771 771 771 772 772 772 773 773 772 772 772 771 771 771 771 771 771
757 757 757 757 758 760 761 761 762 763 763 764 764 764 765 765 765 765 765 766 767 769 769 770 769 769 769 769 769 770 771 771 772 773 773 773 773 773 774 774 774 774 774 773 773 772 771 771 771 771 771 771 771 772 772 772 772 773 773 773 772 772 772 771 771 771 771 770 770
758 758 759 760 761 762 763 764 764 764 765 765 765 765 766 766 766 766 767 767 769 769 770 770 770 769 769 769 769 770 771 772 773 773 773 774 774 774 774 775 775 775 774 774 773 772 772 772 772 772 772 772 772 772 772 772 772 772 773 773 772 772 771 771 771 770 770 770 770
760 760 761 762 763 764 765 765 766 766 766 766 766 766 767 767 767 767 768 769 769 770 770 770 770 770 770 770 770 771 772 772 773 773 774 774 775 775 775 776 775 775 774 774 773 773 773 773 772 772 772 772 772 772 772 772 772 772 772 772 772 772 771 771 770 770 770 770 769
762 763 763 764 765 766 766 767 767 767 767 767 767 767 767 768 768 768 769 769 770 770 770 770 770 770 770 770 771 771 772 773 773 774 775 775 776 776 776 776 776 775 774 774 774 774 774 773 773 773 772 772 772 772 772 772 772 772 772 772 772 771 771 770 770 770 770 770 769
763 764 765 766 767 767 767 767 768 768 768 768 768 769 769 769 769 769 770 770 770 770 770 770 770 770 770 771 771 772 773 774 775 775 776 776 777 777 776 776 775 774 774 774 775 775 774 774 773 773 772 772 772 772 772 772 773 773 772 772 771 771 771 770 770 770 770 769 769
765 766 767 768 768 768 768 769 769 769 769 769 769 770 770 769 769 770 770 770 771 771 771 770 770 771 771 772 773 774 775 776 776 777 777 777 777 776 776 775 774 774 774 775 776 776 775 774 773 773 772 772 772 772 773 773 773 773 773 772 771 771 770 770 770 770 770 769 769
767 767 768 769 769 769 769 770 770 770 770 770 770 770 770 770 770 770 770 771 771 771 771 772 772 773 774 774 775 776 777 777 778 778 777 776 775 775 774 774 774 775 775 776 776 776 776 774 773 773 773 773 773 773 773 773 774 773 773 772 771 771 770 770 770 770 770 770 769
768 769 769 770 770 770 771 771 771 771 771 770 771 771 771 771 771 771 772 772 773 774 774 774 775 775 776 777 777 778 777 777 776 776 775 774 774 774 774 775 775 776 777 777 777 776 776 775 774 773 773 773 773 774 774 774 774 773 773 772 771 771 771 770 770 770 770 769 769
770 771 771 771 771 771 772 772 772 771 771 772 772 773 773 773 773 774 774 775 775 776 776 776 776 777 777 777 776 776 776 775 774 774 774 774 775 775 776 776 776 777 777 777 776 776 776 775 774 774 774 774 774 774 774 774 774 773 772 772 771 771 771 771 770 770 770 769 769
772 772 772 772 772 772 773 773 773 773 773 774 774 774 774 775 775 775 775 776 776 776 776 776 776 776 775 775 775 775 774 774 775 775 775 776 776 777 777 777 777 777 777 777 776 776 776 775 775 774 774 775 775 774 774 774 774 773 772 772 771 771 771 771 771 770 770 769 769
773 773 773 773 773 773 774 774 774 775 775 775 775 775 775 775 775 775 775 776 776 776 776 776 776 775 775 775 775 775 776 776 776 777 777 777 777 777 777 777 776 776 777 777 776 776 776 776 775 775 775 775 775 775 774 774 774 773 772 772 772 771 771 771 771 771 770 769 769
775 774 774 774 774 775 776 776 776 776 776 776 776 775 775 775 775 776 776 776 776 777 777 776 776 776 776 777 777 777 777 777 778 778 778 777 777 777 777 777 777 777 777 777 777 777 776 776 776 776 776 775 775 775 774 774 774 773 773 772 772 772 772 772 771 771 770 770 769
776 776 776 776 776 777 777 777 777 777 777 776 776 776 776 776 777 777 777 778 778 778 778 778 777 778 778 778 778 778 778 778 778 778 778 778 778 778 777 777 777 777 778 778 777 777 777 776 776 776 776 775 775 775 775 774 774 774 773 773 773 773 773 772 772 771 771 770 769
778 777 777 777 778 778 778 778 778 778 777 777 777 777 777 778 778 779 779 779 779 779 779 779 779 779 779 779 779 779 779 779 779 779 779 779 778 778 778 777 777 778 778 778 778 778 777 777 776 776 776 776 775 775 775 774 774 774 774 774 773 773 773 773 772 772 771 770 770
779 778 778 778 778 779 779 779 779 778 778 778 778 779 779 779 779 779 780 780 780 780 780 780 780 780 780 780 780 780 780 780 779 779 779 779 779 779 778 778 778 778 779 779 779 778 778 777 777 776 776 776 776 775 775 775 775 774 774 774 774 774 773 773 772 772 771 770 770
779 779 779 779 779 779 780 780 779 779 779 779 779 780 780 780 781 781 781 781 781 781 781 781 781 781 781 781 781 781 781 780 780 780 780 780 779 779 779 779 778 779 779 779 779 779 778 778 777 777 776 776 776 776 776 775 775 775 774 774 774 773 773 773 772 771 771 770 769
781 780 780 780 780 781 781 781 781 780 780 781 781 781 781 782 782 782 783 783 783 782 782 782 782 782 782 782 782 782 781 781 781 781 780 780 780 779 779 779 779 779 779 779 779 779 779 779 778 777 777 776 776 776 776 776 775 775 775 774 774 773 773 772 772 771 771 770 769
782 782 782 782 782 782 782 782 782 782 782 782 783 783 783 783 784 784 784 784 784 784 784 784 783 783 783 783 783 783 782 782 782 781 781 780 780 780 780 779 779 779 779 780 780 779 779 779 779 778 777 777 777 777 776 776 776 775 775 774 774 774 773 772 772 771 770 770 769
784 784 784 784 784 784 784 784 783 784 784 784 784 785 785 785 785 785 785 785 785 784 784 784 784 784 784 784 783 783 783 782 782 781 781 781 781 780 780 780 780 779 780 780 780 780 780 779 779 778 778 777 777 777 777 776 776 775 775 774 774 774 773 772 771 771 770 769 768
786 786 785 785 785 785 785 785 785 785 785 786 786 786 786 786 786 786 786 786 785 785 785 785 785 785 784 784 784 783 783 783 782 782 781 781 781 781 781 781 780 780 780 780 781 781 780 780 780 779 778 778 778 777 777 776 776 775 775 775 774 774 773 772 771 770 769 768 767
787 787 786 786 786 786 786 786 786 786 787 787 787 787 787 787 787 787 787 786 786 786 786 785 785 785 785 784 784 783 783 783 783 782 782 782 782 782 782 781 781 781 781 781 781 781 781 780 780 779 779 778 778 777 777 776 776 775 775 775 774 773 772 771 770 769 768 767 767
788 788 788 787 787 787 787 787 787 787 787 787 787 787 788 788 788 787 787 787 786 786 786 786 785 785 785 784 784 784 784 784 783 783 783 783 783 783 783 782 782 782 782 781 781 781 781 781 780 780 779 778 777 777 777 776 776 775 775 774 774 773 772 771 770 769 768 767 766